TimeCET,TemperatureF,Dew PointF,Humidity,Sea Level PressureIn,VisibilityMPH,Wind Direction,Wind SpeedMPH,Gust SpeedMPH,PrecipitationIn,Events,Conditions,WindDirDegrees,DateUTC
1:00 AM,32,29,86,30.50,7,Calm,Calm,,,,Clear,,2013-01-07 00:00:00
6:30 AM,28.4,26.6,93,30.36,-9999.0,Calm,Calm,-,N/A,,Clear,0,2013-01-07 05:30:00
7:00 AM,26,24,89,30.49,6,Calm,Calm,,,,,,2013-01-07 06:00:00
7:30 AM,26.6,24.8,93,30.36,-9999.0,Calm,Calm,-,N/A,,Clear,0,2013-01-07 06:30:00
8:00 AM,26.6,24.8,93,30.39,-9999.0,Variable,1.2,-,N/A,,Clear,0,2013-01-07 07:00:00
8:30 AM,26.6,24.8,93,30.39,4.3,Calm,Calm,-,N/A,Fog,Patches of Fog,0,2013-01-07 07:30:00
9:00 AM,26.6,26.6,100,30.39,4.3,Variable,1.2,-,N/A,Fog,Patches of Fog,0,2013-01-07 08:00:00
10:00 AM,33.8,32.0,93,30.42,-9999.0,Calm,Calm,-,N/A,,Clear,0,2013-01-07 09:00:00
10:30 AM,33.8,32.0,93,30.42,-9999.0,Variable,1.2,-,N/A,,Clear,0,2013-01-07 09:30:00
11:00 AM,37.4,33.8,87,30.42,-9999.0,Calm,Calm,-,N/A,,Clear,0,2013-01-07 10:00:00
11:30 AM,41.0,35.6,81,30.39,-9999.0,Calm,Calm,-,N/A,,Clear,0,2013-01-07 10:30:00
12:00 PM,42.8,35.6,76,30.39,-9999.0,Calm,Calm,-,N/A,,Clear,0,2013-01-07 11:00:00
12:30 PM,44.6,37.4,76,30.39,-9999.0,Calm,Calm,-,N/A,,Clear,0,2013-01-07 11:30:00
1:00 PM,48,38,58,30.40,9,Calm,Calm,,,,,,2013-01-07 12:00:00
1:30 PM,50.0,37.4,62,30.36,-9999.0,Calm,Calm,-,N/A,,Clear,0,2013-01-07 12:30:00
2:00 PM,50.0,37.4,62,30.33,-9999.0,Calm,Calm,-,N/A,,Clear,0,2013-01-07 13:00:00
3:00 PM,53.6,39.2,58,30.30,-9999.0,West,3.5,-,N/A,,Clear,270,2013-01-07 14:00:00
3:30 PM,55.4,41.0,58,30.30,-9999.0,Variable,1.2,-,N/A,,Clear,0,2013-01-07 14:30:00
4:00 PM,55.4,41.0,58,30.33,-9999.0,West,3.5,-,N/A,,Clear,280,2013-01-07 15:00:00
4:30 PM,57.2,41.0,55,30.30,-9999.0,Variable,2.3,-,N/A,,Clear,0,2013-01-07 15:30:00
5:00 PM,57.2,42.8,59,30.30,-9999.0,Variable,1.2,-,N/A,,Clear,0,2013-01-07 16:00:00
5:30 PM,57.2,42.8,59,30.30,-9999.0,Variable,1.2,-,N/A,,Clear,0,2013-01-07 16:30:00
6:00 PM,51.8,41.0,67,30.33,-9999.0,West,6.9,-,N/A,,Clear,260,2013-01-07 17:00:00
7:00 PM,48.2,37.4,66,30.33,-9999.0,SW,4.6,-,N/A,,Clear,220,2013-01-07 18:00:00
7:30 PM,44.6,39.2,81,30.36,-9999.0,Variable,2.3,-,N/A,,Clear,0,2013-01-07 18:30:00
8:00 PM,42.8,39.2,87,30.36,-9999.0,SW,3.5,-,N/A,,Clear,220,2013-01-07 19:00:00
8:30 PM,41.0,37.4,87,30.36,-9999.0,Variable,2.3,-,N/A,,Clear,0,2013-01-07 19:30:00
9:00 PM,39.2,35.6,87,30.36,-9999.0,Calm,Calm,-,N/A,,Clear,0,2013-01-07 20:00:00
9:30 PM,37.4,35.6,93,30.36,-9999.0,Calm,Calm,-,N/A,,Clear,0,2013-01-07 20:30:00
10:00 PM,37.4,35.6,93,30.36,-9999.0,Calm,Calm,-,N/A,,Clear,0,2013-01-07 21:00:00
10:30 PM,35.6,33.8,93,30.39,-9999.0,WSW,3.5,-,N/A,,Clear,250,2013-01-07 21:30:00
11:00 PM,35.6,33.8,93,30.39,-9999.0,Variable,2.3,-,N/A,,Clear,0,2013-01-07 22:00:00